Location: Corralito
(14.1667°N, 87.1833°W)
Time: 22:42:32
(UTC+00:00)

STARLINK-1092 - Pass Details

Date: 07 June 2020
Orbit: 549 x 550 km, 53.0° (Epoch: 05 July)

Event Time Altitude Azimuth Distance (km) Brightness Sun altitude
Rises 01:33:20 0° 319° (NW) 2,706 8.5 -17.6°
Reaches altitude 10° 01:35:35 10° 316° (NW) 1,813 7.4 -18.1°
Maximum altitude 01:39:39 61° 236° (SW) 624 3.9 -19.0°
Enters shadow 01:41:07 36° 171° (S) 874 4.3 -19.3°
